Location: Baumgarten
(49.0970°N, 12.7493°E)
Time: 19:11:09
(UTC+00:00)

YAOGAN 11 - Pass Details

Date: 05 July 2020
Orbit: 614 x 668 km, 98.3° (Epoch: 11 August)

Event Time Altitude Azimuth Distance (km) Brightness Sun altitude
Exits shadow 23:09:08 38° 163° (SSE) 966 4.5 -18.2°
Maximum altitude 23:10:48 88° 73° (ENE) 640 4.0 -18.2°
Drops below altitude 10° 23:15:15 10° 346° (NNW) 2,042 7.9 -18.2°
Sets 23:17:29 0° 346° (NNW) 2,965 9.0 -18.2°
